Grand Strand Airport
KCRE : rendu visible

Aérodrome :











RETROUVEZ-NOUS SUR...

 
LOGIN :

S'inscrire | Disclaimer

   EN    FR    IT 

 









Légende :    VFR   VFR Marginal   IFR   IFR Intensif   IFR Très Intensif
Visi : 
Plafond : 
>= 8 km
>= 3000ft
5 à 8 km
1000 à 3000 ft
1500m à 5 km
500 à 1000 ft
800 à 1500m
200 à 500 ft
< 800m
< 200 ft
Symboles :   Orages  Brouillard  Fortes neiges  Fortes précipitations  Vent > 20 kt






- Altitude de l'aérodrome : 32 ft


KCRE - Grand Strand

DERNIER METAR :
  • 051753Z 31007G17KT 10SM CLR 14/05 A2995 RMK AO1 SLP142 T01440050 10150 20083 58012

METARs EXPIRÉS :
  • 051653Z 30009KT 10SM CLR 14/06 A2997 RMK AO1 SLP149 T01390056
  • 051553Z 33009G16KT 10SM CLR 13/06 A2998 RMK AO1 SLP151 T01280061

TAF KCRE
Valide du 05 à 18h jusqu'au 06 à 18h UTC


051720Z 0518/0618 32010G18KT P6SM SKC
FM052000 29010KT P6SM SKC
FM052300 VRB03KT P6SM SKC
FM061500 01006KT P6SM FEW250
FIR KZJX / Amérique du Nord



MET'MAP, la Météo Aéronautique d'un coup d'oeil ! - Copyright ORBIFLY Décembre 2007 - Disclaimer

ORBIFLY MET'MAP TEAM :

Programmation & Développement : Alexandra Zaïnal
Sur une idée originale de : Baudouin d'Aumeries
Assistance à la programmation : Marc-Olivier Méhu
Soutien technique & logistique : Manuel Goepfert

Contact : metmap@orbifly.com




SOURCES & CREDITS :

   NOAA       Earth
Advisory